Location: Little Baddow
(51.7333°N, 0.5667°E)
Time: 10:09:26
(UTC+00:00)

Cosmos 1943 Rocket - Pass Details

Date: 08 November 2025
Orbit: 812 x 841 km, 71.0° (Epoch: 11 December)

Event Time Altitude Azimuth Distance (km) Brightness Sun altitude
Exits shadow 04:06:26 30° 350° (N) 1,450 3.3 -27.6°
Maximum altitude 04:09:01 54° 53° (NE) 997 2.8 -27.2°
Drops below altitude 10° 04:14:23 10° 130° (SE) 2,402 5.1 -26.4°
Sets 04:16:51 0° 135° (SE) 3,328 5.8 -26.0°
